Tracking 27122 objects as of 25-Mar-2023
HD Live streaming from Space Station
objects crossing your sky now

HGS 4 (GALAXY 4)

Track HGS 4 (GALAXY 4) now!
HGS 4 (GALAXY 4) is classified as:


NORAD ID: 22694
Int'l Code: 1993-039A
Perigee: 35,744.4 km
Apogee: 35,836.8 km
Inclination: 14.6 °
Period: 1,435.9 minutes
Semi major axis: 42161 km
RCS: 28.88 m2 (large)
Launch date: June 25, 1993
Source: United States (US)
Launch site: FRENCH GUIANA (FRGUI)
Your satellite tracking list
Your tracking list is empty




NASA's NSSDC Master Catalog

Two Line Element Set (TLE):
1 22694U 93039A   23082.87922221 -.00000121  00000-0  00000+0 0  9999
2 22694  14.6266   4.1314 0010957  20.3474 188.0356  1.00282885107143
Source of the keplerian elements: AFSPC